This is the latest recevied weather packets stored in our database for station/object SP1BMW-13. If no packets are shown the sender has not sent any weather packets the latest 10 day(s).
| Time | Temp. | Humidity | Pressure | Rain* | Wind** | Luminosity | Snow |
|---|---|---|---|---|---|---|---|
| 1788079477 | 23.89° C | 59% | 1008 hPa | 0 mm | 0.45 m/s, 123° | 220 W/m² | - |
| 1788079422 | 24.44° C | 59% | 1008 hPa | 0 mm | 2.24 m/s, 124° | 199 W/m² | - |
| 1788079359 | 24.44° C | 59% | 1008.2 hPa | 0 mm | 1.34 m/s, 224° | 169 W/m² | - |
| 1788079297 | 24.44° C | 60% | 1008.1 hPa | 0 mm | 0.45 m/s, 237° | 181 W/m² | - |
| 1788079237 | 24.44° C | 59% | 1008.1 hPa | 0 mm | 0.89 m/s, 154° | 194 W/m² | - |
| 1788079177 | 24.44° C | 59% | 1008.1 hPa | 0 mm | 0.89 m/s, 224° | 222 W/m² | - |
| 1788079117 | 24.44° C | 58% | 1008.3 hPa | 0 mm | 2.24 m/s, 165° | 242 W/m² | - |
| 1788079059 | 24.44° C | 58% | 1008.1 hPa | 0 mm | 1.34 m/s, 243° | 269 W/m² | - |
| 1788078999 | 24.44° C | 58% | 1008.2 hPa | 0 mm | 0.89 m/s, 226° | 310 W/m² | - |
| 1788078937 | 23.89° C | 61% | 1008.2 hPa | 0 mm | 0.45 m/s, 241° | 632 W/m² | - |
| 1788078877 | 23.89° C | 59% | 1008.1 hPa | 0 mm | 0.89 m/s, 27° | 632 W/m² | - |
| 1788078820 | 23.89° C | 60% | 1008.1 hPa | 0 mm | 0.45 m/s, 37° | 592 W/m² | - |
| 1788078757 | 23.89° C | 61% | 1008.1 hPa | 0 mm | 0.89 m/s, 212° | 508 W/m² | - |
| 1788078697 | 23.89° C | 61% | 1008.1 hPa | 0 mm | 0.89 m/s, 231° | 481 W/m² | - |
| 1788078637 | 23.89° C | 59% | 1008 hPa | 0 mm | 2.24 m/s, 113° | 320 W/m² | - |
| 1788078580 | 23.89° C | 59% | 1008.2 hPa | 0 mm | 2.24 m/s, 110° | 431 W/m² | - |
| 1788078516 | 23.89° C | 60% | 1008.2 hPa | 0 mm | 1.34 m/s, 342° | 229 W/m² | - |
| 1788078456 | 23.89° C | 60% | 1008 hPa | 0 mm | 0.89 m/s, 222° | 298 W/m² | - |
| 1788078397 | 23.89° C | 59% | 1008.1 hPa | 0 mm | 0.89 m/s, 59° | 293 W/m² | - |
| 1788078342 | 23.89° C | 59% | 1008.2 hPa | 0 mm | 0.89 m/s, 226° | 426 W/m² | - |
| 1788078276 | 23.89° C | 59% | 1008.2 hPa | 0 mm | 1.34 m/s, 262° | 339 W/m² | - |
| 1788078216 | 23.89° C | 59% | 1008.2 hPa | 0 mm | 1.34 m/s, 189° | 268 W/m² | - |
| 1788078157 | 23.89° C | 59% | 1008.2 hPa | 0 mm | 1.34 m/s, 132° | 251 W/m² | - |
| 1788078096 | 23.89° C | 59% | 1008 hPa | 0 mm | 0.45 m/s, 114° | 547 W/m² | - |
| 1788078036 | 23.89° C | 60% | 1008.2 hPa | 0 mm | 0.89 m/s, 311° | 503 W/m² | - |
* Rain latest hour (hover to see other rain measurements)
** Current wind speed in m/s (hover to see current wind gust speed)